Home > Weather > San José de Mayo > Past weeks

Flag for Uruguay Weather for the Past 2 Weeks in San José de Mayo, Uruguay

Now
50 °F

Fog.


Feels Like: 49 °F
Forecast: 45 / 62 °F
Wind: 3 mph from Northeast

Location: Carrasco

Current Time: May 5, 2016 at 8:23:21 AM

Latest Report: May 5, 2016 at 8:00 AM


Visibility: 2 mi

Pressure: 30.15 "Hg

Humidity: 94%

Dew Point: 48 °F

Location of San José de MayoLocation

Historic Weather in San José de Mayo — Graph

°F

San José de Mayo Temperature Yesterday

Maximum temperature yesterday: 61 °F (at 3:00 PM)
Minimum temperature yesterday: 39 °F (at 4:00 AM)
Average temperature yesterday: 49 °F

High & Low Weather Summary for the Past Weeks

 TemperatureHumidityPressure
High72 °F (Apr 21, 1:00 PM)100% (Apr 21, 7:00 AM)30.27 "Hg (Apr 21, 7:00 AM)
Low39 °F (May 4, 4:00 AM)45% (May 1, 2:00 PM)29.65 "Hg (Apr 23, 2:00 PM)
Average55 °F75%30.04 "Hg
* Reported Apr 20 7:00 AM — May 5 7:00 AM, San José de Mayo, Weather by CustomWeather, © 2016

Note: Actual official high and low records may vary slightly from our data, if they occured in-between our weather recording intervals... More about our weather records

Advertising

San José de Mayo Weather History for the Previous 24 Hours

Scroll right to see more
 ConditionsComfort  
Time TempWeatherWind HumidityBarometerVisibility
7:00 AM
Thu, May 5
52 °FSunny.No wind82%30.15 "Hg10 mi
6:00 AM52 °FClear.No wind82%30.15 "Hg5 mi
5:00 AM52 °FClear.No wind82%30.15 "Hg3 mi
4:00 AM50 °FOvercast.2 mph88%30.15 "Hg3 mi
3:00 AM50 °FFog.3 mph88%30.15 "Hg2 mi
2:00 AM48 °FFog.3 mph82%30.12 "Hg2 mi
1:00 AM48 °FFog.3 mph82%30.12 "Hg2 mi
12:00 AM48 °FFog.3 mph94%30.12 "Hg2 mi
11:00 PM
Wed, May 4
48 °FFog.5 mph94%30.12 "Hg2 mi
10:00 PM50 °FClear.No wind88%30.09 "Hg3 mi
9:00 PM52 °FClear.No wind82%30.09 "Hg5 mi
8:00 PM50 °FClear.No wind88%30.09 "Hg10 mi
7:00 PM50 °FClear.5 mph82%30.09 "Hg10 mi
6:00 PM55 °FClear.5 mph67%30.09 "Hg10 mi
5:00 PM59 °FClear.6 mph55%30.09 "Hg10 mi
4:00 PM61 °FSunny.5 mph52%30.09 "Hg10 mi
3:00 PM61 °FSunny.7 mph52%30.09 "Hg10 mi
2:00 PM59 °FSunny.5 mph55%30.12 "Hg10 mi
1:00 PM59 °FSunny.5 mph55%30.15 "Hg10 mi
12:00 PM57 °FSunny.5 mph59%30.15 "Hg10 mi
11:00 AM55 °FSunny.8 mph63%30.15 "Hg10 mi
10:00 AM54 °FScattered clouds.3 mph72%30.15 "HgN/A
9:00 AM46 °FPassing clouds.3 mph87%30.15 "HgN/A
8:00 AM39 °FPassing clouds.2 mph100%30.15 "Hg5 mi
Weather by CustomWeather, © 2016

See weather overviewHow to use our weather pages